K9JWM Weather Reports


Display with metric or nautical units.
time (UTC)temp
F
wind
direction
speed
MPH
gust
MPH
rain 1hr
in
rain 24hr
in
rain mn
in
humidity
%
barometer
mb
20260905154004 67 110 0.0 3.0 0.00 0.01 0.01 90 1017.7
20260905153913 67 110 0.0 0.0 0.00 0.01 0.01 90 1017.7
20260905153004 67 109 0.0 2.0 0.00 0.01 0.01 90 1017.4
20260905152414 67 109 1.0 1.0 0.00 0.01 0.01 91 1017.5
20260905152005 67 112 0.0 6.0 0.00 0.01 0.01 91 1017.5
20260905151004 66 87 0.0 2.0 0.00 0.01 0.01 90 1017.4
20260905150912 66 87 0.0 0.0 0.00 0.01 0.01 91 1017.4
20260905150004 66 88 0.0 7.0 0.00 0.01 0.01 91 1017.5
20260905145413 66 79 0.0 0.0 0.00 0.01 0.01 91 1017.4
20260905145004 66 80 0.0 2.0 0.00 0.01 0.01 92 1017.3
20260905144004 66 80 0.0 2.0 0.00 0.01 0.01 92 1017.2
20260905143912 66 80 0.0 0.0 0.00 0.01 0.01 91 1017.2
20260905143005 66 82 0.0 3.0 0.00 0.01 0.01 92 1017.1
20260905142456 66 86 0.0 2.0 0.00 0.01 0.01 92 1016.9
20260905141004 66 78 0.0 3.0 0.00 0.01 0.01 92 1016.8
20260905140928 66 78 0.0 0.0 0.00 0.01 0.01 92 1016.8
20260905140005 66 69 0.0 3.0 0.00 0.01 0.01 92 1016.5
20260905135413 66 76 0.0 2.0 0.00 0.01 0.01 93 1016.5
20260905135007 66 78 0.0 3.0 0.00 0.01 0.01 93 1016.4
20260905134005 66 77 1.0 3.0 0.00 0.01 0.01 93 1016.7
20260905133913 66 77 1.0 3.0 0.00 0.01 0.01 93 1016.7
20260905133005 66 69 0.0 3.0 0.00 0.01 0.01 94 1016.7
20260905132417 65 66 0.0 0.0 0.00 0.01 0.01 94 1016.9
20260905132004 65 65 0.0 2.0 0.00 0.01 0.01 94 1016.8
20260905131004 65 65 0.0 1.0 0.00 0.01 0.01 94 1016.8
20260905130913 65 46 0.0 1.0 0.00 0.01 0.01 94 1016.7
20260905130004 65 38 0.0 2.0 0.00 0.01 0.01 94 1016.6
20260905125417 65 38 0.0 0.0 0.00 0.01 0.01 94 1016.6
20260905125005 65 38 0.0 0.0 0.00 0.01 0.01 94 1016.7
20260905124004 65 38 0.0 0.0 0.00 0.01 0.01 94 1016.9
20260905123912 65 38 0.0 0.0 0.00 0.01 0.01 94 1016.9
20260905122417 64 38 0.0 0.0 0.00 0.01 0.01 94 1016.4
20260905122005 64 38 0.0 1.0 0.00 0.01 0.01 94 1016.4
20260905121011 64 38 0.0 0.0 0.00 0.01 0.01 94 1016.0
20260905120916 64 38 0.0 0.0 0.00 0.01 0.01 94 1016.0
20260905120006 64 38 0.0 1.0 0.00 0.01 0.01 94 1015.9
20260905115413 68 135 0.0 1.0 0.00 0.01 0.01 94 1009.3